Racine, WI

9:58 AM CST on December 16, 2017 (GMT -0600)
Batten

Weather History for KRAC - March, 2013

Change the Weather History Date:

Wednesday, March 20, 2013

  Actual Average Record
Temperature  
Mean Temperature 18 °F -  
Max Temperature 21 °F 41 °F 74 °F (1976)
Min Temperature 14 °F 29 °F -1 °F (1965)
Degree Days  
Heating Degree Days 48    
Moisture  
Dew Point 3 °F    
Average Humidity 51    
Maximum Humidity 55    
Minimum Humidity 46    
Precipitation  
Precipitation 0.00 in - - ()
Sea Level Pressure  
Sea Level Pressure 30.06 in    
Wind  
Wind Speed 12 mph (WNW)    
Max Wind Speed 17 mph    
Max Gust Speed 30 mph    
Visibility 10 miles    
Events      
Averages and records for this station are not official NWS values.
T = Trace of Precipitation, MM = Missing Value Source: NWS Daily Summary

Daily Weather History Graph

Daily Weather History Graph

Search for Another Location

Airport or City:

Trip Planner

Search our weather history database for the weather conditions in past years. The results will help you decide how hot, cold, wet, or windy it might be!

Date:

Astronomy

Mar. 20, 2013 Rise Set
Actual Time 6:54 AM CDT 7:03 PM CDT
Civil Twilight 6:25 AM CDT 7:32 PM CDT
Nautical Twilight 5:52 AM CDT 8:05 PM CDT
Astronomical Twilight 5:19 AM CDT 8:39 PM CDT
Moon 12:31 PM CDT (3/20) 2:41 AM CDT (3/20)
Length of Visible Light 13h 06m
Length of Day
12h 09m
First Quarter, 59% of the Moon is Illuminated
Mar 20
First Quarter
Mar 27
Full
Apr 2
Last Quarter
Apr 10
New
Apr 18
First Quarter

Hourly Weather History & Observations

Time (CDT) Temp. Windchill Dew Point Humidity Pressure Visibility Wind Dir Wind Speed Gust Speed Precip Events Conditions
12:53 AM 21.9 °F 9.8 °F 8.1 °F 55% 30.05 in 10.0 mi West 12.7 mph 19.6 mph N/A   Partly Cloudy
1:53 AM 21.0 °F 9.3 °F 6.1 °F 53% 30.05 in 10.0 mi WNW 11.5 mph - N/A   Clear
2:53 AM 19.9 °F 7.9 °F 5.0 °F 52% 30.05 in 10.0 mi WNW 11.5 mph - N/A   Clear
3:53 AM 19.0 °F 6.8 °F 3.9 °F 52% 30.04 in 10.0 mi WNW 11.5 mph 20.7 mph N/A   Clear
4:53 AM 17.1 °F 5.0 °F 3.0 °F 54% 30.04 in 10.0 mi WNW 10.4 mph 18.4 mph N/A   Clear
5:53 AM 16.0 °F 3.6 °F 1.0 °F 52% 30.06 in 10.0 mi WNW 10.4 mph 17.3 mph N/A   Clear
6:53 AM 14.0 °F 2.9 °F -0.0 °F 54% 30.07 in 10.0 mi WNW 8.1 mph - N/A   Clear
7:53 AM 14.0 °F 0.5 °F -0.0 °F 54% 30.08 in 10.0 mi WNW 11.5 mph 20.7 mph N/A   Clear
8:53 AM 15.1 °F -0.6 °F -0.9 °F 49% 30.08 in 10.0 mi WNW 16.1 mph 23.0 mph N/A   Clear
9:53 AM 16.0 °F 1.1 °F -0.9 °F 47% 30.08 in 10.0 mi WNW 15.0 mph 29.9 mph N/A   Clear
10:53 AM 18.0 °F 3.6 °F 1.0 °F 48% 30.07 in 10.0 mi WNW 15.0 mph 25.3 mph N/A   Clear
11:53 AM 19.0 °F 6.1 °F 1.0 °F 46% 30.07 in 10.0 mi WNW 12.7 mph 26.5 mph N/A   Clear
12:53 PM 21.0 °F 8.1 °F 3.0 °F 46% 30.06 in 10.0 mi WNW 13.8 mph 20.7 mph N/A   Clear
1:53 PM 21.0 °F 8.1 °F 3.0 °F 46% 30.05 in 10.0 mi West 13.8 mph 26.5 mph N/A   Clear
2:53 PM 21.0 °F 6.6 °F 3.0 °F 46% 30.04 in 10.0 mi WNW 17.3 mph 27.6 mph N/A   Partly Cloudy
3:53 PM 21.9 °F 11.0 °F 3.9 °F 46% 30.04 in 10.0 mi WNW 10.4 mph 20.7 mph N/A   Scattered Clouds
4:53 PM 21.0 °F 9.9 °F 3.9 °F 48% 30.05 in 10.0 mi WNW 10.4 mph 21.9 mph N/A   Overcast
5:53 PM 21.0 °F 9.3 °F 3.9 °F 48% 30.06 in 10.0 mi NW 11.5 mph 19.6 mph N/A   Mostly Cloudy
6:53 PM 19.9 °F 9.3 °F 5.0 °F 52% 30.07 in 10.0 mi WNW 9.2 mph - N/A   Partly Cloudy
7:53 PM 19.0 °F 11.1 °F 5.0 °F 54% 30.07 in 10.0 mi West 5.8 mph - N/A   Clear
8:53 PM 19.0 °F 10.0 °F 3.9 °F 52% 30.08 in 10.0 mi WNW 6.9 mph - N/A   Clear
9:53 PM 18.0 °F 8.7 °F 3.9 °F 54% 30.07 in 10.0 mi WNW 6.9 mph - N/A   Clear
10:53 PM 17.1 °F 7.6 °F 1.9 °F 52% 30.07 in 10.0 mi WNW 6.9 mph - N/A   Partly Cloudy
11:53 PM 17.1 °F 6.6 °F 1.9 °F 52% 30.06 in 10.0 mi WNW 8.1 mph - N/A   Clear